Year,Month,Day,Hour,Minute,Value (Times are PST for temperature in C)
2010,07,19,00,00,13.20
2010,07,19,00,01,13.20
2010,07,19,00,02,13.20
2010,07,19,00,03,13.20
2010,07,19,00,04,13.20
2010,07,19,00,05,13.20
2010,07,19,00,06,13.10
2010,07,19,00,07,13.10
2010,07,19,00,08,13.10
2010,07,19,00,09,13.10
2010,07,19,00,10,13.10
2010,07,19,00,11,13.10
2010,07,19,00,12,13.10
2010,07,19,00,13,13.10
2010,07,19,00,14,13.10
2010,07,19,00,15,13.10
2010,07,19,00,16,13.10
2010,07,19,00,17,13.10
2010,07,19,00,18,13.10
2010,07,19,00,19,13.00
2010,07,19,00,20,13.00
2010,07,19,00,21,13.00
2010,07,19,00,22,13.00
2010,07,19,00,23,13.00
2010,07,19,00,24,13.00
2010,07,19,00,25,13.00
2010,07,19,00,26,13.00
2010,07,19,00,27,13.00
2010,07,19,00,28,13.00
2010,07,19,00,29,12.90
2010,07,19,00,30,12.90
2010,07,19,00,31,12.90
2010,07,19,00,32,12.90
2010,07,19,00,33,12.90
2010,07,19,00,34,12.90
2010,07,19,00,35,12.90
2010,07,19,00,36,12.90
2010,07,19,00,37,12.90
2010,07,19,00,38,12.80
2010,07,19,00,39,12.80
2010,07,19,00,40,12.80
2010,07,19,00,41,12.80
2010,07,19,00,42,12.80
2010,07,19,00,43,12.80
2010,07,19,00,44,12.80
2010,07,19,00,45,12.80
2010,07,19,00,46,12.80
2010,07,19,00,47,12.80
2010,07,19,00,48,12.80
2010,07,19,00,49,12.80
2010,07,19,00,50,12.80
2010,07,19,00,51,12.80
2010,07,19,00,52,12.80
2010,07,19,00,53,12.70
2010,07,19,00,54,12.70
2010,07,19,00,55,12.70
2010,07,19,00,56,12.70
2010,07,19,00,57,12.70
2010,07,19,00,58,12.70
2010,07,19,00,59,12.60
2010,07,19,01,00,12.60
2010,07,19,01,01,12.60
2010,07,19,01,02,12.60
2010,07,19,01,03,12.60
2010,07,19,01,04,12.60
2010,07,19,01,05,12.60
2010,07,19,01,06,12.60
2010,07,19,01,07,12.60
2010,07,19,01,08,12.60
2010,07,19,01,09,12.60
2010,07,19,01,10,12.60
2010,07,19,01,11,12.60
2010,07,19,01,12,12.60
2010,07,19,01,13,12.70
2010,07,19,01,14,12.70
2010,07,19,01,15,12.70
2010,07,19,01,16,12.70
2010,07,19,01,17,12.70
2010,07,19,01,18,12.70
2010,07,19,01,19,12.70
2010,07,19,01,20,12.70
2010,07,19,01,21,12.70
2010,07,19,01,22,12.60
2010,07,19,01,23,12.60
2010,07,19,01,24,12.60
2010,07,19,01,25,12.60
2010,07,19,01,26,12.60
2010,07,19,01,27,12.60
2010,07,19,01,28,12.60
2010,07,19,01,29,12.60
2010,07,19,01,30,12.60
2010,07,19,01,31,12.60
2010,07,19,01,32,12.60
2010,07,19,01,33,12.50
2010,07,19,01,34,12.50
2010,07,19,01,35,12.50
2010,07,19,01,36,12.50
2010,07,19,01,37,12.50
2010,07,19,01,38,12.50
2010,07,19,01,39,12.40
2010,07,19,01,40,12.40
2010,07,19,01,41,12.40
2010,07,19,01,42,12.40
2010,07,19,01,43,12.40
2010,07,19,01,44,12.40
2010,07,19,01,45,12.40
2010,07,19,01,46,12.40
2010,07,19,01,47,12.40
2010,07,19,01,48,12.40
2010,07,19,01,49,12.40
2010,07,19,01,50,12.40
2010,07,19,01,51,12.40
2010,07,19,01,52,12.40
2010,07,19,01,53,12.40
2010,07,19,01,54,12.40
2010,07,19,01,55,12.40
2010,07,19,01,56,12.40
2010,07,19,01,57,12.30
2010,07,19,01,58,12.30
2010,07,19,01,59,12.30
2010,07,19,02,00,12.30
2010,07,19,02,01,12.30
2010,07,19,02,02,12.30
2010,07,19,02,03,12.30
2010,07,19,02,04,12.30
2010,07,19,02,05,12.30
2010,07,19,02,06,12.30
2010,07,19,02,07,12.30
2010,07,19,02,08,12.30
2010,07,19,02,09,12.30
2010,07,19,02,10,12.30
2010,07,19,02,11,12.30
2010,07,19,02,12,12.20
2010,07,19,02,13,12.20
2010,07,19,02,14,12.20
2010,07,19,02,15,12.20
2010,07,19,02,16,12.20
2010,07,19,02,17,12.20
2010,07,19,02,18,12.20
2010,07,19,02,19,12.20
2010,07,19,02,20,12.20
2010,07,19,02,21,12.20
2010,07,19,02,22,12.20
2010,07,19,02,23,12.20
2010,07,19,02,24,12.20
2010,07,19,02,25,12.20
2010,07,19,02,26,12.20
2010,07,19,02,27,12.20
2010,07,19,02,28,12.20
2010,07,19,02,29,12.20
2010,07,19,02,30,12.20
2010,07,19,02,31,12.20
2010,07,19,02,32,12.20
2010,07,19,02,33,12.20
2010,07,19,02,34,12.20
2010,07,19,02,35,12.20
2010,07,19,02,36,12.20
2010,07,19,02,37,12.20
2010,07,19,02,38,12.20
2010,07,19,02,39,12.20
2010,07,19,02,40,12.20
2010,07,19,02,41,12.20
2010,07,19,02,42,12.20
2010,07,19,02,43,12.20
2010,07,19,02,44,12.20
2010,07,19,02,45,12.20
2010,07,19,02,46,12.20
2010,07,19,02,47,12.20
2010,07,19,02,48,12.20
2010,07,19,02,49,12.20
2010,07,19,02,50,12.20
2010,07,19,02,51,12.20
2010,07,19,02,52,12.20
2010,07,19,02,53,12.20
2010,07,19,02,54,12.20
2010,07,19,02,55,12.20
2010,07,19,02,56,12.30
2010,07,19,02,57,12.30
2010,07,19,02,58,12.30
2010,07,19,02,59,12.30
2010,07,19,03,00,12.30
2010,07,19,03,01,12.30
2010,07,19,03,02,12.30
2010,07,19,03,03,12.30
2010,07,19,03,04,12.30
2010,07,19,03,05,12.30
2010,07,19,03,06,12.30
2010,07,19,03,07,12.20
2010,07,19,03,08,12.20
2010,07,19,03,09,12.20
2010,07,19,03,10,12.20
2010,07,19,03,11,12.20
2010,07,19,03,12,12.20
2010,07,19,03,13,12.20
2010,07,19,03,14,12.20
2010,07,19,03,15,12.20
2010,07,19,03,16,12.20
2010,07,19,03,17,12.20
2010,07,19,03,18,12.20
2010,07,19,03,19,12.20
2010,07,19,03,20,12.20
2010,07,19,03,21,12.20
2010,07,19,03,22,12.20
2010,07,19,03,23,12.20
2010,07,19,03,24,12.20
2010,07,19,03,25,12.20
2010,07,19,03,26,12.20
2010,07,19,03,27,12.20
2010,07,19,03,28,12.20
2010,07,19,03,29,12.20
2010,07,19,03,30,12.20
2010,07,19,03,31,12.20
2010,07,19,03,32,12.20
2010,07,19,03,33,12.20
2010,07,19,03,34,12.20
2010,07,19,03,35,12.20
2010,07,19,03,36,12.20
2010,07,19,03,37,12.20
2010,07,19,03,38,12.20
2010,07,19,03,39,12.20
2010,07,19,03,40,12.20
2010,07,19,03,41,12.20
2010,07,19,03,42,12.20
2010,07,19,03,43,12.20
2010,07,19,03,44,12.20
2010,07,19,03,45,12.20
2010,07,19,03,46,12.20
2010,07,19,03,47,12.20
2010,07,19,03,48,12.20
2010,07,19,03,49,12.20
2010,07,19,03,50,12.20
2010,07,19,03,51,12.20
2010,07,19,03,52,12.20
2010,07,19,03,53,12.20
2010,07,19,03,54,12.20
2010,07,19,03,55,12.20
2010,07,19,03,56,12.20
2010,07,19,03,57,12.20
2010,07,19,03,58,12.20
2010,07,19,03,59,12.20
2010,07,19,04,00,12.20
2010,07,19,04,01,12.20
2010,07,19,04,02,12.20
2010,07,19,04,03,12.20
2010,07,19,04,04,12.20
2010,07,19,04,05,12.20
2010,07,19,04,06,12.20
2010,07,19,04,07,12.20
2010,07,19,04,08,12.20
2010,07,19,04,09,12.20
2010,07,19,04,10,12.20
2010,07,19,04,11,12.30
2010,07,19,04,12,12.30
2010,07,19,04,13,12.30
2010,07,19,04,14,12.30
2010,07,19,04,15,12.30
2010,07,19,04,16,12.30
2010,07,19,04,17,12.30
2010,07,19,04,18,12.30
2010,07,19,04,19,12.30
2010,07,19,04,20,12.30
2010,07,19,04,21,12.30
2010,07,19,04,22,12.30
2010,07,19,04,23,12.30
2010,07,19,04,24,12.30
2010,07,19,04,25,12.30
2010,07,19,04,26,12.30
2010,07,19,04,27,12.30
2010,07,19,04,28,12.30
2010,07,19,04,29,12.30
2010,07,19,04,30,12.30
2010,07,19,04,31,12.30
2010,07,19,04,32,12.30
2010,07,19,04,33,12.30
2010,07,19,04,34,12.30
2010,07,19,04,35,12.30
2010,07,19,04,36,12.30
2010,07,19,04,37,12.30
2010,07,19,04,38,12.30
2010,07,19,04,39,12.30
2010,07,19,04,40,12.30
2010,07,19,04,41,12.30
2010,07,19,04,42,12.30
2010,07,19,04,43,12.30
2010,07,19,04,44,12.30
2010,07,19,04,45,12.30
2010,07,19,04,46,12.30
2010,07,19,04,47,12.30
2010,07,19,04,48,12.30
2010,07,19,04,49,12.30
2010,07,19,04,50,12.30
2010,07,19,04,51,12.30
2010,07,19,04,52,12.30
2010,07,19,04,53,12.30
2010,07,19,04,54,12.30
2010,07,19,04,55,12.30
2010,07,19,04,56,12.30
2010,07,19,04,57,12.30
2010,07,19,04,58,12.30
2010,07,19,04,59,12.30
2010,07,19,05,00,12.30
2010,07,19,05,01,12.30
2010,07,19,05,02,12.30
2010,07,19,05,03,12.30
2010,07,19,05,04,12.30
2010,07,19,05,05,12.30
2010,07,19,05,06,12.30
2010,07,19,05,07,12.30
2010,07,19,05,08,12.30
2010,07,19,05,09,12.30
2010,07,19,05,10,12.20
2010,07,19,05,11,12.30
2010,07,19,05,12,12.20
2010,07,19,05,13,12.20
2010,07,19,05,14,12.20
2010,07,19,05,15,12.20
2010,07,19,05,16,12.20
2010,07,19,05,17,12.20
2010,07,19,05,18,12.20
2010,07,19,05,19,12.20
2010,07,19,05,20,12.20
2010,07,19,05,21,12.20
2010,07,19,05,22,12.20
2010,07,19,05,23,12.20
2010,07,19,05,24,12.20
2010,07,19,05,25,12.20
2010,07,19,05,26,12.20
2010,07,19,05,27,12.20
2010,07,19,05,28,12.20
2010,07,19,05,29,12.20
2010,07,19,05,30,12.20
2010,07,19,05,31,12.20
2010,07,19,05,32,12.20
2010,07,19,05,33,12.20
2010,07,19,05,34,12.20
2010,07,19,05,35,12.20
2010,07,19,05,36,12.10
2010,07,19,05,37,12.10
2010,07,19,05,38,12.10
2010,07,19,05,39,12.10
2010,07,19,05,40,12.10
2010,07,19,05,41,12.10
2010,07,19,05,42,12.10
2010,07,19,05,43,12.10
2010,07,19,05,44,12.10
2010,07,19,05,45,12.10
2010,07,19,05,46,12.10
2010,07,19,05,47,12.10
2010,07,19,05,48,12.10
2010,07,19,05,49,12.10
2010,07,19,05,50,12.10
2010,07,19,05,51,12.10
2010,07,19,05,52,12.10
2010,07,19,05,53,12.10
2010,07,19,05,54,12.10
2010,07,19,05,55,12.00
2010,07,19,05,56,12.00
2010,07,19,05,57,12.00
2010,07,19,05,58,12.00
2010,07,19,05,59,12.00
2010,07,19,06,00,12.00
2010,07,19,06,01,12.00
2010,07,19,06,02,12.00
2010,07,19,06,03,12.00
2010,07,19,06,04,12.00
2010,07,19,06,05,12.00
2010,07,19,06,06,12.00
2010,07,19,06,07,12.00
2010,07,19,06,08,12.00
2010,07,19,06,09,12.00
2010,07,19,06,10,12.00
2010,07,19,06,11,12.00
2010,07,19,06,12,12.00
2010,07,19,06,13,12.00
2010,07,19,06,14,12.00
2010,07,19,06,15,12.00
2010,07,19,06,16,12.00
2010,07,19,06,17,12.00
2010,07,19,06,18,12.00
2010,07,19,06,19,12.00
2010,07,19,06,20,12.00
2010,07,19,06,21,12.00
2010,07,19,06,22,12.00
2010,07,19,06,23,12.00
2010,07,19,06,25,12.00
2010,07,19,06,26,12.00
2010,07,19,06,27,12.00
2010,07,19,06,28,12.00
2010,07,19,06,30,12.10
2010,07,19,06,31,12.10
2010,07,19,06,32,12.10
2010,07,19,06,33,12.10
2010,07,19,06,34,12.10
2010,07,19,06,35,12.10
2010,07,19,06,36,12.10
2010,07,19,06,37,12.20
2010,07,19,06,38,12.20
2010,07,19,06,39,12.20
2010,07,19,06,40,12.20
2010,07,19,06,41,12.20
2010,07,19,06,42,12.20
2010,07,19,06,43,12.20
2010,07,19,06,44,12.20
2010,07,19,06,45,12.20
2010,07,19,06,46,12.20
2010,07,19,06,47,12.10
2010,07,19,06,48,12.10
2010,07,19,06,49,12.10
2010,07,19,06,50,12.10
2010,07,19,06,51,12.10
2010,07,19,06,52,12.10
2010,07,19,06,53,12.10
2010,07,19,06,54,12.10
2010,07,19,06,55,12.10
2010,07,19,06,56,12.10
2010,07,19,06,57,12.10
2010,07,19,06,58,12.10
2010,07,19,06,59,12.10
2010,07,19,07,00,12.10
2010,07,19,07,01,12.10
2010,07,19,07,02,12.20
2010,07,19,07,03,12.20
2010,07,19,07,04,12.20
2010,07,19,07,05,12.20
2010,07,19,07,06,12.30
2010,07,19,07,07,12.30
2010,07,19,07,08,12.30
2010,07,19,07,09,12.30
2010,07,19,07,10,12.30
2010,07,19,07,11,12.30
2010,07,19,07,12,12.30
2010,07,19,07,13,12.30
2010,07,19,07,14,12.30
2010,07,19,07,15,12.30
2010,07,19,07,16,12.30
2010,07,19,07,17,12.30
2010,07,19,07,18,12.30
2010,07,19,07,19,12.30
2010,07,19,07,20,12.30
2010,07,19,07,21,12.30
2010,07,19,07,22,12.30
2010,07,19,07,23,12.30
2010,07,19,07,24,12.30
2010,07,19,07,25,12.30
2010,07,19,07,26,12.30
2010,07,19,07,27,12.30
2010,07,19,07,28,12.30
2010,07,19,07,29,12.30
2010,07,19,07,30,12.30
2010,07,19,07,31,12.30
2010,07,19,07,32,12.30
2010,07,19,07,33,12.30
2010,07,19,07,34,12.30
2010,07,19,07,35,12.40
2010,07,19,07,36,12.40
2010,07,19,07,37,12.40
2010,07,19,07,38,12.40
2010,07,19,07,39,12.40
2010,07,19,07,40,12.40
2010,07,19,07,41,12.50
2010,07,19,07,42,12.50
2010,07,19,07,43,12.50
2010,07,19,07,44,12.60
2010,07,19,07,45,12.60
2010,07,19,07,46,12.60
2010,07,19,07,47,12.70
2010,07,19,07,48,12.70
2010,07,19,07,49,12.80
2010,07,19,07,50,12.80
2010,07,19,07,51,12.80
2010,07,19,07,52,12.80
2010,07,19,07,53,12.80
2010,07,19,07,54,12.80
2010,07,19,07,55,12.80
2010,07,19,07,56,12.90
2010,07,19,07,57,12.90
2010,07,19,07,58,12.90
2010,07,19,07,59,12.90
2010,07,19,08,00,12.90
2010,07,19,08,01,12.90
2010,07,19,08,02,12.90
2010,07,19,08,03,12.90
2010,07,19,08,04,12.90
2010,07,19,08,05,12.90
2010,07,19,08,06,12.90
2010,07,19,08,07,13.00
2010,07,19,08,08,13.10
2010,07,19,08,09,13.10
2010,07,19,08,10,13.20
2010,07,19,08,11,13.20
2010,07,19,08,12,13.20
2010,07,19,08,13,13.30
2010,07,19,08,14,13.30
2010,07,19,08,15,13.40
2010,07,19,08,16,13.40
2010,07,19,08,17,13.50
2010,07,19,08,18,13.60
2010,07,19,08,19,13.60
2010,07,19,08,20,13.70
2010,07,19,08,21,13.70
2010,07,19,08,22,13.70
2010,07,19,08,23,13.80
2010,07,19,08,24,13.80
2010,07,19,08,25,13.90
2010,07,19,08,26,13.90
2010,07,19,08,27,13.90
2010,07,19,08,28,14.00
2010,07,19,08,29,14.00
2010,07,19,08,30,14.10
2010,07,19,08,31,14.10
2010,07,19,08,32,14.10
2010,07,19,08,33,14.10
2010,07,19,08,34,14.10
2010,07,19,08,35,14.10
2010,07,19,08,36,14.10
2010,07,19,08,37,14.10
2010,07,19,08,38,14.00
2010,07,19,08,39,14.00
2010,07,19,08,40,14.00
2010,07,19,08,41,14.00
2010,07,19,08,42,14.00
2010,07,19,08,43,14.00
2010,07,19,08,44,14.00
2010,07,19,08,45,14.10
2010,07,19,08,46,14.00
2010,07,19,08,47,14.10
2010,07,19,08,48,14.10
2010,07,19,08,49,14.10
2010,07,19,08,50,14.10
2010,07,19,08,51,14.10
2010,07,19,08,52,14.10
2010,07,19,08,53,14.00
2010,07,19,08,54,14.00
2010,07,19,08,55,14.00
2010,07,19,08,56,13.90
2010,07,19,08,57,13.90
2010,07,19,08,58,13.90
2010,07,19,08,59,13.90
2010,07,19,09,00,13.90
2010,07,19,09,01,13.90
2010,07,19,09,02,13.90
2010,07,19,09,03,13.90
2010,07,19,09,04,13.90
2010,07,19,09,05,13.90
2010,07,19,09,06,13.90
2010,07,19,09,07,13.90
2010,07,19,09,08,13.90
2010,07,19,09,09,13.90
2010,07,19,09,10,13.90
2010,07,19,09,11,14.00
2010,07,19,09,12,14.00
2010,07,19,09,13,14.10
2010,07,19,09,14,14.10
2010,07,19,09,15,14.10
2010,07,19,09,16,14.10
2010,07,19,09,17,14.10
2010,07,19,09,18,14.20
2010,07,19,09,19,14.20
2010,07,19,09,20,14.20
2010,07,19,09,21,14.20
2010,07,19,09,22,14.30
2010,07,19,09,23,14.30
2010,07,19,09,24,14.30
2010,07,19,09,25,14.40
2010,07,19,09,26,14.40
2010,07,19,09,27,14.50
2010,07,19,09,28,14.50
2010,07,19,09,29,14.60
2010,07,19,09,30,14.60
2010,07,19,09,31,14.60
2010,07,19,09,32,14.70
2010,07,19,09,33,14.70
2010,07,19,09,34,14.80
2010,07,19,09,35,14.80
2010,07,19,09,36,14.90
2010,07,19,09,37,15.00
2010,07,19,09,38,15.00
2010,07,19,09,39,15.00
2010,07,19,09,40,15.00
2010,07,19,09,41,15.10
2010,07,19,09,42,15.20
2010,07,19,09,43,15.30
2010,07,19,09,44,15.30
2010,07,19,09,45,15.40
2010,07,19,09,46,15.40
2010,07,19,09,47,15.60
2010,07,19,09,48,15.60
2010,07,19,09,49,15.70
2010,07,19,09,50,15.80
2010,07,19,09,51,15.90
2010,07,19,09,52,15.90
2010,07,19,09,53,16.00
2010,07,19,09,54,16.10
2010,07,19,09,55,16.20
2010,07,19,09,56,16.20
2010,07,19,09,57,16.30
2010,07,19,09,58,16.30
2010,07,19,09,59,16.40
2010,07,19,10,00,16.40
2010,07,19,10,01,16.50
2010,07,19,10,02,16.60
2010,07,19,10,03,16.60
2010,07,19,10,04,16.70
2010,07,19,10,05,16.70
2010,07,19,10,06,16.80
2010,07,19,10,07,16.80
2010,07,19,10,08,16.90
2010,07,19,10,09,17.10
2010,07,19,10,10,17.10
2010,07,19,10,11,17.10
2010,07,19,10,12,17.00
2010,07,19,10,13,17.00
2010,07,19,10,14,16.90
2010,07,19,10,15,16.90
2010,07,19,10,16,17.00
2010,07,19,10,17,17.10
2010,07,19,10,18,17.10
2010,07,19,10,19,17.10
2010,07,19,10,20,17.10
2010,07,19,10,21,17.10
2010,07,19,10,22,17.10
2010,07,19,10,23,17.10
2010,07,19,10,24,17.10
2010,07,19,10,25,17.10
2010,07,19,10,26,17.10
2010,07,19,10,27,17.10
2010,07,19,10,28,17.10
2010,07,19,10,29,17.10
2010,07,19,10,30,17.10
2010,07,19,10,31,17.20
2010,07,19,10,32,17.20
2010,07,19,10,33,17.30
2010,07,19,10,34,17.30
2010,07,19,10,35,17.30
2010,07,19,10,36,17.40
2010,07,19,10,37,17.40
2010,07,19,10,38,17.50
2010,07,19,10,39,17.60
2010,07,19,10,40,17.60
2010,07,19,10,41,17.60
2010,07,19,10,42,17.70
2010,07,19,10,43,17.70
2010,07,19,10,44,17.70
2010,07,19,10,45,17.80
2010,07,19,10,46,17.80
2010,07,19,10,47,17.90
2010,07,19,10,48,17.90
2010,07,19,10,49,18.10
2010,07,19,10,50,18.20
2010,07,19,10,51,18.20
2010,07,19,10,52,18.30
2010,07,19,10,53,18.30
2010,07,19,10,54,18.30
2010,07,19,10,55,18.40
2010,07,19,10,56,18.50
2010,07,19,10,57,18.60
2010,07,19,10,58,18.60
2010,07,19,10,59,18.60
2010,07,19,11,00,18.60
2010,07,19,11,01,18.60
2010,07,19,11,02,18.70
2010,07,19,11,03,18.70
2010,07,19,11,04,18.80
2010,07,19,11,05,18.80
2010,07,19,11,06,18.80
2010,07,19,11,07,18.80
2010,07,19,11,08,18.80
2010,07,19,11,09,18.80
2010,07,19,11,10,18.90
2010,07,19,11,11,18.90
2010,07,19,11,12,18.90
2010,07,19,11,13,19.00
2010,07,19,11,14,19.10
2010,07,19,11,15,19.20
2010,07,19,11,16,19.30
2010,07,19,11,17,19.30
2010,07,19,11,18,19.30
2010,07,19,11,19,19.40
2010,07,19,11,20,19.40
2010,07,19,11,21,19.40
2010,07,19,11,22,19.40
2010,07,19,11,23,19.40
2010,07,19,11,24,19.40
2010,07,19,11,25,19.40
2010,07,19,11,26,19.40
2010,07,19,11,27,19.40
2010,07,19,11,28,19.40
2010,07,19,11,29,19.40
2010,07,19,11,30,19.40
2010,07,19,11,31,19.40
2010,07,19,11,32,19.40
2010,07,19,11,33,19.50
2010,07,19,11,34,19.50
2010,07,19,11,35,19.50
2010,07,19,11,36,19.50
2010,07,19,11,37,19.60
2010,07,19,11,38,19.60
2010,07,19,11,39,19.80
2010,07,19,11,40,19.80
2010,07,19,11,41,20.00
2010,07,19,11,42,20.10
2010,07,19,11,43,20.20
2010,07,19,11,44,20.30
2010,07,19,11,45,20.40
2010,07,19,11,46,20.40
2010,07,19,11,47,20.60
2010,07,19,11,48,20.70
2010,07,19,11,49,20.80
2010,07,19,11,50,20.90
2010,07,19,11,51,20.90
2010,07,19,11,52,20.80
2010,07,19,11,53,20.80
2010,07,19,11,54,20.80
2010,07,19,11,55,20.80
2010,07,19,11,56,20.80
2010,07,19,11,57,20.80
2010,07,19,11,58,20.80
2010,07,19,11,59,20.80
2010,07,19,12,00,20.80
2010,07,19,12,01,20.80
2010,07,19,12,02,20.80
2010,07,19,12,03,20.90
2010,07,19,12,04,20.90
2010,07,19,12,05,21.10
2010,07,19,12,06,21.20
2010,07,19,12,07,21.30
2010,07,19,12,08,21.40
2010,07,19,12,09,21.50
2010,07,19,12,10,21.50
2010,07,19,12,11,21.50
2010,07,19,12,12,21.60
2010,07,19,12,13,21.60
2010,07,19,12,14,21.60
2010,07,19,12,15,21.60
2010,07,19,12,16,21.60
2010,07,19,12,17,21.60
2010,07,19,12,18,21.60
2010,07,19,12,19,21.70
2010,07,19,12,20,21.70
2010,07,19,12,21,21.70
2010,07,19,12,22,21.70
2010,07,19,12,23,21.70
2010,07,19,12,24,21.70
2010,07,19,12,25,21.70
2010,07,19,12,26,21.70
2010,07,19,12,27,21.70
2010,07,19,12,28,21.80
2010,07,19,12,29,21.80
2010,07,19,12,30,21.80
2010,07,19,12,31,21.80
2010,07,19,12,32,21.80
2010,07,19,12,33,21.90
2010,07,19,12,34,21.90
2010,07,19,12,35,21.90
2010,07,19,12,36,22.00
2010,07,19,12,37,22.00
2010,07,19,12,38,22.00
2010,07,19,12,39,22.00
2010,07,19,12,40,22.00
2010,07,19,12,41,22.10
2010,07,19,12,42,22.10
2010,07,19,12,43,22.20
2010,07,19,12,44,22.20
2010,07,19,12,45,22.30
2010,07,19,12,46,22.30
2010,07,19,12,47,22.40
2010,07,19,12,48,22.40
2010,07,19,12,49,22.60
2010,07,19,12,50,22.70
2010,07,19,12,51,22.80
2010,07,19,12,52,22.80
2010,07,19,12,53,22.90
2010,07,19,12,54,23.10
2010,07,19,12,55,23.10
2010,07,19,12,56,23.20
2010,07,19,12,57,23.30
2010,07,19,12,58,23.50
2010,07,19,12,59,23.60
2010,07,19,13,00,23.70
2010,07,19,13,01,23.80
2010,07,19,13,02,23.90
2010,07,19,13,03,23.90
2010,07,19,13,04,24.00
2010,07,19,13,05,24.00
2010,07,19,13,06,24.00
2010,07,19,13,07,24.10
2010,07,19,13,08,24.10
2010,07,19,13,09,24.10
2010,07,19,13,10,24.20
2010,07,19,13,11,24.20
2010,07,19,13,12,24.20
2010,07,19,13,13,24.30
2010,07,19,13,14,24.30
2010,07,19,13,15,24.30
2010,07,19,13,16,24.30
2010,07,19,13,17,24.30
2010,07,19,13,18,24.30
2010,07,19,13,19,24.20
2010,07,19,13,20,24.20
2010,07,19,13,21,24.20
2010,07,19,13,22,24.30
2010,07,19,13,23,24.30
2010,07,19,13,24,24.30
2010,07,19,13,25,24.30
2010,07,19,13,26,24.30
2010,07,19,13,27,24.30
2010,07,19,13,28,24.20
2010,07,19,13,29,24.10
2010,07,19,13,30,24.10
2010,07,19,13,31,23.90
2010,07,19,13,32,23.80
2010,07,19,13,33,23.80
2010,07,19,13,34,23.80
2010,07,19,13,35,23.70
2010,07,19,13,36,23.70
2010,07,19,13,37,23.70
2010,07,19,13,38,23.60
2010,07,19,13,39,23.60
2010,07,19,13,40,23.60
2010,07,19,13,41,23.60
2010,07,19,13,42,23.60
2010,07,19,13,43,23.60
2010,07,19,13,44,23.60
2010,07,19,13,45,23.60
2010,07,19,13,46,23.60
2010,07,19,13,47,23.70
2010,07,19,13,48,23.70
2010,07,19,13,49,23.70
2010,07,19,13,50,23.80
2010,07,19,13,51,23.80
2010,07,19,13,52,23.70
2010,07,19,13,53,23.70
2010,07,19,13,54,23.70
2010,07,19,13,55,23.80
2010,07,19,13,56,23.80
2010,07,19,13,57,23.90
2010,07,19,13,58,24.10
2010,07,19,13,59,24.10
2010,07,19,14,00,24.20
2010,07,19,14,01,24.20
2010,07,19,14,02,24.30
2010,07,19,14,03,24.30
2010,07,19,14,04,24.30
2010,07,19,14,05,24.40
2010,07,19,14,06,24.40
2010,07,19,14,07,24.60
2010,07,19,14,08,24.60
2010,07,19,14,09,24.60
2010,07,19,14,10,24.60
2010,07,19,14,11,24.60
2010,07,19,14,12,24.50
2010,07,19,14,13,24.40
2010,07,19,14,14,24.40
2010,07,19,14,15,24.40
2010,07,19,14,16,24.30
2010,07,19,14,17,24.30
2010,07,19,14,18,24.20
2010,07,19,14,19,24.20
2010,07,19,14,20,24.20
2010,07,19,14,21,24.30
2010,07,19,14,22,24.30
2010,07,19,14,23,24.40
2010,07,19,14,24,24.40
2010,07,19,14,25,24.50
2010,07,19,14,26,24.60
2010,07,19,14,27,24.70
2010,07,19,14,28,24.90
2010,07,19,14,29,25.00
2010,07,19,14,30,25.10
2010,07,19,14,31,25.20
2010,07,19,14,32,25.30
2010,07,19,14,33,25.30
2010,07,19,14,34,25.30
2010,07,19,14,35,25.40
2010,07,19,14,36,25.40
2010,07,19,14,37,25.40
2010,07,19,14,38,25.30
2010,07,19,14,39,25.30
2010,07,19,14,40,25.30
2010,07,19,14,41,25.30
2010,07,19,14,42,25.30
2010,07,19,14,43,25.30
2010,07,19,14,44,25.20
2010,07,19,14,45,25.20
2010,07,19,14,46,25.10
2010,07,19,14,47,25.00
2010,07,19,14,48,25.00
2010,07,19,14,49,25.00
2010,07,19,14,50,25.00
2010,07,19,14,51,24.90
2010,07,19,14,52,24.90
2010,07,19,14,53,25.00
2010,07,19,14,54,25.00
2010,07,19,14,55,25.10
2010,07,19,14,56,25.10
2010,07,19,14,57,25.10
2010,07,19,14,58,25.20
2010,07,19,14,59,25.20
2010,07,19,15,00,25.20
2010,07,19,15,01,25.20
2010,07,19,15,02,25.30
2010,07,19,15,03,25.20
2010,07,19,15,04,25.20
2010,07,19,15,05,25.20
2010,07,19,15,06,25.20
2010,07,19,15,07,25.10
2010,07,19,15,08,24.90
2010,07,19,15,09,24.80
2010,07,19,15,10,24.80
2010,07,19,15,11,24.80
2010,07,19,15,12,24.80
2010,07,19,15,13,24.80
2010,07,19,15,14,24.80
2010,07,19,15,15,24.80
2010,07,19,15,16,24.70
2010,07,19,15,17,24.70
2010,07,19,15,18,24.70
2010,07,19,15,19,24.70
2010,07,19,15,20,24.60
2010,07,19,15,21,24.70
2010,07,19,15,22,24.70
2010,07,19,15,23,24.70
2010,07,19,15,24,24.70
2010,07,19,15,25,24.60
2010,07,19,15,26,24.60
2010,07,19,15,27,24.60
2010,07,19,15,28,24.60
2010,07,19,15,29,24.60
2010,07,19,15,30,24.70
2010,07,19,15,31,24.70
2010,07,19,15,32,24.70
2010,07,19,15,33,24.70
2010,07,19,15,34,24.70
2010,07,19,15,35,24.80
2010,07,19,15,36,24.80
2010,07,19,15,37,24.80
2010,07,19,15,38,24.80
2010,07,19,15,39,24.80
2010,07,19,15,40,24.80
2010,07,19,15,41,24.80
2010,07,19,15,42,24.80
2010,07,19,15,43,24.80
2010,07,19,15,44,24.80
2010,07,19,15,45,24.90
2010,07,19,15,46,24.90
2010,07,19,15,47,25.10
2010,07,19,15,48,25.10
2010,07,19,15,49,25.10
2010,07,19,15,50,25.10
2010,07,19,15,51,25.00
2010,07,19,15,52,24.90
2010,07,19,15,53,24.90
2010,07,19,15,54,24.90
2010,07,19,15,55,24.80
2010,07,19,15,56,24.80
2010,07,19,15,57,24.90
2010,07,19,15,58,24.80
2010,07,19,15,59,24.90
2010,07,19,16,00,24.80
2010,07,19,16,01,24.80
2010,07,19,16,02,24.80
2010,07,19,16,03,24.80
2010,07,19,16,04,24.90
2010,07,19,16,05,24.80
2010,07,19,16,06,24.80
2010,07,19,16,07,24.80
2010,07,19,16,08,24.70
2010,07,19,16,09,24.70
2010,07,19,16,10,24.70
2010,07,19,16,11,24.70
2010,07,19,16,12,24.70
2010,07,19,16,13,24.70
2010,07,19,16,14,24.60
2010,07,19,16,15,24.60
2010,07,19,16,16,24.60
2010,07,19,16,17,24.40
2010,07,19,16,18,24.40
2010,07,19,16,19,24.30
2010,07,19,16,20,24.30
2010,07,19,16,21,24.30
2010,07,19,16,22,24.30
2010,07,19,16,23,24.20
2010,07,19,16,24,24.20
2010,07,19,16,25,24.20
2010,07,19,16,26,24.20
2010,07,19,16,27,24.20
2010,07,19,16,28,24.20
2010,07,19,16,29,24.10
2010,07,19,16,30,24.00
2010,07,19,16,31,24.00
2010,07,19,16,32,24.00
2010,07,19,16,33,24.00
2010,07,19,16,34,24.00
2010,07,19,16,35,24.00
2010,07,19,16,36,23.90
2010,07,19,16,37,23.80
2010,07,19,16,38,23.70
2010,07,19,16,39,23.70
2010,07,19,16,40,23.70
2010,07,19,16,41,23.70
2010,07,19,16,42,23.70
2010,07,19,16,43,23.70
2010,07,19,16,44,23.70
2010,07,19,16,45,23.70
2010,07,19,16,46,23.70
2010,07,19,16,47,23.60
2010,07,19,16,48,23.60
2010,07,19,16,49,23.60
2010,07,19,16,50,23.50
2010,07,19,16,51,23.40
2010,07,19,16,52,23.50
2010,07,19,16,53,23.50
2010,07,19,16,54,23.50
2010,07,19,16,55,23.50
2010,07,19,16,56,23.50
2010,07,19,16,57,23.60
2010,07,19,16,58,23.50
2010,07,19,16,59,23.40
2010,07,19,17,00,23.40
2010,07,19,17,01,23.40
2010,07,19,17,02,23.50
2010,07,19,17,03,23.60
2010,07,19,17,04,23.60
2010,07,19,17,05,23.60
2010,07,19,17,06,23.50
2010,07,19,17,07,23.40
2010,07,19,17,08,23.40
2010,07,19,17,09,23.30
2010,07,19,17,10,23.30
2010,07,19,17,11,23.30
2010,07,19,17,12,23.30
2010,07,19,17,13,23.30
2010,07,19,17,14,23.30
2010,07,19,17,15,23.30
2010,07,19,17,16,23.30
2010,07,19,17,17,23.30
2010,07,19,17,18,23.30
2010,07,19,17,19,23.30
2010,07,19,17,20,23.30
2010,07,19,17,21,23.20